Wind_Speed
2 3 5 7 7 7 4 5 2 4 5 3 1 1 3 4 6 4 8 12 21 23 23 25 25 24 27 28 27 26 25 23 21 20 18 16 16 16 16 17 17 15 14 14 14 14 13 13 14
3 3 6 5 8 9 8 3 3 4 5 4 4 4 1 2 2 6 13 17 22 23 23 21 24 24 26 27 27 26 24 22 21 18 17 16 15 15 17 18 16 14 13 12 12 12 12 11 11
5 5 6 4 7 8 6 4 3 2 3 5 3 3 3 3 2 7 13 20 21 20 22 22 27 25 25 27 27 26 23 21 19 18 16 15 15 15 16 17 16 14 12 12 10 10 9 9 9
7 7 5 9 11 5 3 3 5 3 2 4 3 3 4 3 6 5 19 22 22 20 20 22 27 24 25 26 27 25 23 21 19 18 16 14 14 15 15 14 14 13 12 12 10 7 7 7 7
9 4 7 12 8 2 4 4 5 7 2 6 7 4 2 5 7 13 17 21 22 21 19 23 26 25 25 26 26 24 22 20 19 17 16 15 15 14 14 13 13 12 10 9 11 9 7 6 5
7 5 7 11 12 6 3 5 9 9 8 5 8 4 4 9 11 14 16 20 20 21 20 22 25 25 25 24 23 23 21 19 18 16 15 14 13 13 12 12 11 11 12 11 9 9 8 6 4
13 8 10 7 10 7 2 5 4 5 8 8 3 4 5 11 12 15 16 19 20 21 21 20 21 23 24 23 22 20 19 19 18 17 15 14 13 12 11 10 9 9 9 11 10 9 8 7 5
7 7 7 10 9 6 2 3 3 6 6 6 3 1 7 12 15 16 18 18 20 20 20 20 21 20 19 19 21 20 19 18 17 16 15 13 12 11 10 9 8 8 8 9 10 10 9 7 6
4 7 10 12 8 6 1 3 1 1 5 9 4 1 5 16 18 18 19 19 20 19 19 19 20 21 20 18 19 20 18 17 16 14 14 13 9 9 9 9 10 8 7 7 9 10 10 9 7
9 9 9 3 0 3 5 4 5 5 7 7 8 5 7 17 20 19 19 20 22 21 20 20 20 19 19 18 18 17 16 15 14 13 12 11 9 9 9 9 10 9 9 8 8 8 10 9 10
8 10 3 6 4 6 6 6 3 5 9 7 10 8 10 17 18 18 19 21 23 22 21 22 20 20 20 18 18 18 17 16 16 15 13 12 10 9 10 8 8 8 9 7 7 7 9 10 9
9 6 6 2 4 6 7 7 6 6 2 3 2 1 11 15 15 17 17 19 21 22 22 21 21 20 21 19 19 18 18 18 17 16 16 13 11 11 10 9 9 8 9 9 9 10 9 9 10
11 5 6 7 7 8 9 9 5 9 5 1 1 5 9 13 15 15 13 15 18 20 22 21 21 21 21 20 19 19 19 18 16 16 17 15 14 12 11 9 9 9 9 9 10 10 9 9 10
5 4 6 7 10 6 9 8 4 10 7 5 2 7 8 12 16 13 13 15 17 19 20 20 21 20 20 21 19 19 18 18 18 17 16 18 15 13 11 10 9 10 10 10 10 9 8 10 10
5 10 11 12 13 10 8 11 10 9 4 10 7 7 7 11 17 17 15 17 18 19 20 21 21 21 21 21 20 19 17 17 17 16 16 16 16 13 11 11 11 11 11 10 10 9 9 9 10
10 7 11 12 12 8 9 15 15 10 9 12 11 9 8 12 17 15 14 14 15 16 17 17 19 21 22 20 19 18 17 17 17 16 15 16 15 14 12 12 11 11 11 11 12 12 11 11 10
11 11 9 8 10 7 14 13 8 5 7 12 12 12 10 5 8 6 11 12 13 15 15 17 19 19 19 18 18 18 17 17 17 16 15 15 16 16 15 14 12 12 12 12 12 13 13 12 12
6 12 8 11 12 10 14 13 7 1 5 4 5 8 4 2 4 3 5 8 11 13 15 16 18 20 19 18 18 18 19 19 18 17 17 16 16 16 16 14 13 13 14 13 12 12 12 14 13
9 7 9 8 8 9 12 12 8 3 5 6 5 6 5 6 7 7 7 5 4 11 14 16 19 20 21 21 21 21 24 22 21 18 17 17 16 17 16 14 13 14 15 15 11 12 13 11 12
9 11 12 10 9 11 12 10 6 6 7 7 8 9 9 9 11 14 15 14 8 4 8 14 19 20 22 22 22 22 21 22 21 19 18 18 18 18 17 16 15 14 14 14 13 13 11 12 11
13 12 9 11 10 14 10 12 11 8 9 9 9 9 11 11 12 13 17 18 16 13 8 8 14 18 22 22 20 19 19 19 21 23 20 20 19 18 17 16 15 14 14 15 15 15 14 12 12
14 12 11 8 12 14 17 12 20 14 9 7 8 7 9 10 11 12 14 18 19 18 15 13 11 15 19 20 23 25 25 24 26 23 20 19 20 19 18 16 15 15 14 15 15 15 15 13 11
14 5 11 11 12 15 14 12 13 16 14 9 8 8 8 9 10 11 13 16 18 20 20 18 15 9 14 19 23 24 26 26 23 23 19 19 19 20 19 18 16 15 16 16 15 15 16 14 13
6 8 11 11 12 14 19 15 14 18 16 10 8 7 8 8 9 10 13 14 17 20 22 22 21 15 9 14 21 24 26 25 23 21 20 20 19 20 19 18 17 16 16 16 16 14 14 15 13
12 14 12 14 14 15 18 18 8 10 11 10 7 7 8 8 10 12 13 16 18 20 22 22 24 21 15 9 15 21 25 26 24 21 21 20 22 21 21 21 19 18 19 17 17 16 16 16 14
19 19 15 20 15 16 8 14 7 11 10 8 7 7 7 8 9 11 14 17 18 18 19 20 21 22 20 15 11 14 19 23 25 25 24 22 23 23 21 21 20 20 20 20 20 19 18 17 16
19 13 14 18 20 10 10 3 6 11 11 8 7 5 6 7 8 10 12 15 16 16 16 17 17 17 19 19 16 10 11 15 21 20 20 23 20 22 22 21 22 21 22 23 22 21 20 17 17
10 5 9 11 20 19 14 16 9 19 15 9 6 4 5 6 8 9 11 13 15 14 14 15 15 15 16 16 16 16 14 12 14 17 18 17 18 21 21 22 23 23 23 24 24 23 21 21 19
12 8 6 8 7 8 13 10 9 16 14 10 5 3 4 6 7 8 10 12 14 14 15 15 15 15 14 15 15 15 15 15 15 14 15 19 19 19 23 23 24 25 26 26 28 27 25 25 22
17 19 13 7 9 8 9 7 6 11 10 5 2 1 4 5 6 6 8 10 13 15 16 15 15 16 15 14 12 13 13 13 14 15 14 11 15 20 23 25 24 25 27 27 28 30 29 29 27
Wind_Direction
255 239 250 248 247 233 125 105 334 141 174 93 205 200 345 13 348 20 132 156 153 154 160 165 168 161 168 169 167 164 161 157 155 151 146 142 139 137 135 135 135 132 127 124 117 108 102 94 88
217 200 236 278 256 212 121 110 74 56 61 141 148 200 252 102 22 93 149 158 157 154 157 164 171 167 165 170 168 165 164 160 158 155 149 145 142 140 140 140 139 138 132 128 122 113 107 98 89
197 226 260 254 253 246 126 107 29 35 203 213 192 247 1 66 81 131 135 152 155 154 156 169 172 174 169 169 169 168 166 163 160 156 152 148 145 145 144 144 146 143 140 137 131 121 114 104 93
187 197 227 246 221 236 314 53 355 253 154 214 241 180 124 68 129 106 147 154 157 158 160 176 171 174 172 168 169 168 167 165 162 158 155 151 151 149 149 151 151 152 150 149 143 136 125 113 97
208 247 231 235 215 261 261 317 318 273 148 172 196 93 69 138 123 139 150 160 163 161 162 167 171 174 174 171 168 168 168 167 165 162 161 157 158 157 154 157 155 153 154 161 160 166 154 135 117
209 272 229 222 205 197 274 311 294 263 205 129 193 245 70 141 150 151 154 162 166 162 162 168 173 175 176 174 171 169 170 168 168 167 167 164 163 163 163 160 163 163 166 175 187 177 174 159 143
258 226 251 251 184 203 321 327 253 270 220 189 70 249 95 156 152 157 159 166 167 166 165 167 173 178 180 178 175 174 174 172 174 173 173 171 171 170 171 168 168 173 179 179 194 191 184 179 170
259 262 221 216 185 167 49 292 298 247 225 88 229 288 138 158 161 159 165 167 170 171 170 169 174 178 180 183 182 181 182 180 180 178 178 178 177 176 177 177 181 182 182 191 195 198 203 201 200
248 239 217 192 197 136 123 309 102 304 224 213 162 1 85 152 162 163 164 170 173 176 176 176 178 181 182 184 189 187 187 187 186 185 186 182 179 186 201 191 209 190 192 202 205 202 209 212 218
228 242 224 59 132 240 298 294 324 237 180 184 188 124 137 156 171 170 173 173 175 178 181 184 185 185 186 186 190 187 192 192 191 192 190 185 197 194 191 201 207 198 202 206 212 199 211 216 213
195 249 84 200 254 299 296 270 317 248 194 189 204 148 162 170 181 185 182 179 180 181 184 188 190 186 191 192 190 192 197 197 200 198 198 197 202 204 201 204 208 205 212 212 219 216 213 221 233
229 236 235 228 271 281 285 325 245 245 72 92 219 250 173 182 188 196 190 181 183 181 187 191 193 195 198 198 197 199 200 200 203 204 201 199 202 207 209 215 212 209 211 215 223 226 230 233 233
233 220 234 238 255 270 288 262 278 221 180 159 67 176 184 185 192 198 195 194 190 189 191 194 196 200 202 204 206 206 206 205 207 205 208 204 208 211 212 216 220 222 217 219 224 232 232 231 237
163 227 240 243 236 226 257 237 233 213 185 186 224 204 188 192 191 192 204 203 201 198 197 198 200 203 205 209 212 210 210 209 208 211 211 208 211 214 213 216 223 226 223 222 223 226 234 240 242
216 245 219 227 228 230 235 229 222 229 220 231 215 209 225 197 198 208 206 210 206 204 202 202 202 204 207 212 215 216 216 214 214 214 215 213 213 215 214 222 225 225 223 222 224 228 236 247 245
237 238 247 204 205 202 226 237 194 222 223 232 235 233 219 213 222 219 222 221 216 215 210 209 208 209 210 212 214 217 219 216 216 216 213 214 216 214 219 223 227 225 224 229 235 235 240 244 247
210 250 216 162 208 179 211 233 209 178 232 247 257 243 244 275 193 256 252 239 232 224 221 220 219 221 219 219 216 217 219 219 217 217 214 214 213 214 215 223 227 221 223 229 238 237 238 240 246
237 233 221 231 175 211 196 228 149 250 236 228 249 234 226 258 53 358 322 276 247 235 231 228 224 222 219 219 221 225 223 222 218 217 218 213 213 214 216 221 220 219 222 229 235 241 239 239 248
268 262 248 225 169 229 209 207 121 101 124 120 119 121 106 65 47 35 25 9 279 241 231 224 220 218 213 215 216 219 224 222 218 218 217 214 213 214 213 217 220 219 226 232 243 239 229 228 239
235 235 241 237 200 222 184 186 139 116 95 96 103 86 76 64 45 30 31 31 23 316 263 240 232 223 218 220 223 227 229 232 225 219 219 214 210 209 209 211 217 219 226 228 230 221 217 230 224
226 244 237 260 180 216 211 168 164 134 120 104 87 81 70 59 51 40 35 29 19 11 344 279 252 237 229 226 224 224 226 228 224 219 218 215 209 207 205 209 213 215 221 232 223 217 221 226 224
244 212 243 238 216 210 209 226 185 165 148 128 111 86 75 68 62 49 38 34 27 20 9 347 299 254 240 228 223 217 217 219 222 218 213 213 206 205 203 204 210 215 224 228 219 220 223 227 226
246 224 235 234 235 249 197 246 176 174 166 144 109 82 63 54 51 51 46 39 28 25 22 14 356 312 254 236 231 227 227 230 235 226 211 207 203 199 198 204 209 216 219 218 221 217 212 215 229
220 222 234 244 246 231 241 213 211 188 168 146 119 84 61 45 42 41 36 39 32 25 24 20 13 3 324 253 241 239 241 233 239 224 215 210 204 200 197 203 208 210 210 211 209 209 207 212 212
229 235 236 225 226 237 232 226 223 90 123 139 131 98 67 44 36 26 24 22 24 23 20 20 17 14 2 314 262 251 248 244 239 236 221 221 211 208 202 201 204 205 205 206 203 203 201 204 210
223 230 242 249 243 242 185 226 144 124 119 133 125 91 65 45 34 25 18 11 13 16 17 16 17 15 9 352 316 275 256 245 241 237 236 227 224 216 203 204 206 204 204 203 204 203 205 206 210
242 242 261 272 269 256 208 146 146 159 157 158 129 104 65 37 30 19 16 10 8 7 13 11 12 12 12 9 359 332 287 258 254 251 234 233 231 219 207 206 203 204 203 200 200 205 205 206 208
272 346 223 228 252 250 257 233 227 181 174 165 155 106 59 26 12 13 5 6 358 1 3 5 2 8 8 8 8 6 355 321 265 252 243 239 232 225 209 210 209 204 205 202 199 205 206 207 207
324 258 265 297 261 270 258 232 337 166 165 169 154 98 46 10 0 0 360 358 351 350 356 359 358 355 359 3 8 9 9 1 341 319 261 246 239 231 221 213 213 213 209 206 202 206 207 208 208
303 295 306 289 250 265 281 296 108 124 136 160 161 93 19 350 352 355 354 349 349 349 348 348 349 351 355 353 352 6 11 9 6 3 333 305 255 235 230 224 218 219 218 212 212 214 210 208 208
Height
801 801 801 797 797 777 780 780 766 767 772 764 765 768 774 774 777 793 786 788 790 795 800 803 805 807 810 812 815 819 822 824 827 828 829 831 831 833 833 836 837 839 841 842 842 843 844 845 845
802 802 799 783 792 784 781 770 772 762 762 764 768 773 775 777 773 779 785 789 793 797 802 806 808 810 810 814 817 820 823 825 827 829 830 832 834 835 835 836 839 841 843 844 845 846 846 847 847
802 802 790 782 777 777 776 769 767 763 763 765 768 769 775 779 779 780 781 789 795 799 803 807 809 812 813 814 818 820 824 826 829 831 833 834 835 837 838 838 839 842 844 845 847 848 849 849 850
801 797 788 792 784 766 770 765 764 765 766 765 764 773 775 781 779 781 786 790 795 800 804 807 810 814 816 817 819 822 825 828 830 831 834 836 837 837 839 840 842 843 845 846 847 849 850 850 851
799 787 790 788 779 768 765 763 766 766 762 765 768 773 777 782 783 785 788 792 795 800 805 808 812 815 818 820 821 823 826 828 829 832 834 835 837 839 840 842 843 845 847 848 848 849 850 851 852
791 783 793 790 781 772 768 766 767 766 758 764 771 773 775 781 783 786 789 792 796 801 805 810 812 816 819 822 823 824 827 829 831 833 835 837 839 841 842 842 845 845 847 849 849 850 851 852 853
788 786 783 775 777 780 775 765 768 763 760 765 761 769 774 778 783 786 789 793 797 801 806 810 814 817 820 823 824 827 829 829 832 833 837 838 840 842 844 844 845 847 848 850 850 851 852 853 853
783 782 787 777 783 779 772 766 763 764 761 759 763 767 772 775 783 786 789 793 797 801 805 810 815 819 822 824 825 827 830 831 833 834 836 839 841 843 845 846 846 848 848 850 850 852 853 853 853
785 788 783 778 781 775 767 771 762 761 761 763 762 764 771 776 782 784 788 792 796 801 805 810 814 817 820 824 826 827 830 832 834 836 837 839 843 844 845 847 847 848 849 850 851 852 852 853 853
786 784 774 767 771 774 769 769 766 765 763 764 764 769 774 777 780 781 784 788 793 799 803 808 812 816 819 822 825 828 830 833 834 836 837 841 843 844 845 846 847 847 849 849 851 851 852 853 853
782 783 775 775 773 773 772 766 762 762 765 755 760 759 771 776 779 779 781 785 790 796 801 805 811 812 818 820 823 826 828 830 833 835 837 839 841 843 844 845 847 848 848 849 851 851 851 851 851
790 779 779 774 773 773 772 765 765 761 752 750 755 759 769 773 775 776 778 783 788 793 799 803 808 813 816 818 820 822 825 827 830 832 835 837 839 841 842 843 844 845 846 847 849 848 848 848 850
788 779 777 774 772 771 768 768 765 762 755 760 761 762 766 771 774 776 778 781 786 791 796 800 805 810 813 816 818 820 822 824 827 829 832 834 836 838 840 841 842 843 844 845 846 846 847 847 848
777 779 776 773 770 769 774 764 768 757 754 760 761 759 764 769 773 776 779 781 785 789 794 798 803 806 810 813 815 817 820 821 824 826 828 830 833 835 836 838 840 841 842 843 843 844 844 845 845
778 787 775 773 770 769 768 776 772 753 756 758 759 759 759 766 771 774 778 781 784 787 791 795 799 803 806 810 813 815 817 819 821 823 825 828 830 832 834 836 837 839 840 841 842 842 843 842 842
785 781 784 760 766 766 774 779 758 752 758 760 758 757 759 760 766 772 776 780 783 787 791 794 796 799 802 806 809 812 814 816 817 819 821 824 827 830 831 833 834 836 837 838 839 839 839 840 839
781 785 783 774 764 765 772 772 752 756 761 762 759 758 758 759 765 772 776 778 783 785 788 792 795 798 802 805 807 809 811 812 813 816 818 820 823 825 827 829 830 832 834 835 835 836 837 836 837
776 786 780 777 771 768 770 767 758 763 762 764 764 761 765 769 774 779 780 779 780 782 785 788 790 793 797 801 804 806 807 808 809 811 813 816 819 821 823 825 827 829 830 831 832 833 834 834 833
780 784 782 770 762 771 766 763 768 767 764 768 768 770 772 774 776 778 779 779 779 780 781 783 785 788 792 794 797 799 800 802 804 806 809 811 814 817 819 821 823 825 826 828 830 831 831 832 832
783 785 781 768 763 771 763 767 775 773 775 772 772 771 773 773 774 776 776 777 779 779 779 780 781 784 786 788 791 793 795 797 799 801 804 806 809 812 814 817 819 821 822 825 826 828 829 829 830
781 782 774 774 768 765 763 775 783 779 776 777 775 774 774 776 777 778 778 777 776 776 777 778 778 779 781 783 786 789 791 793 794 795 798 801 804 807 809 812 815 817 819 819 822 824 825 824 827
782 765 770 775 777 782 762 779 771 775 781 779 778 778 778 779 779 781 781 780 779 777 775 774 773 774 776 779 780 781 781 783 785 789 792 796 799 802 805 808 810 812 814 816 818 820 822 823 823
775 760 768 768 770 763 771 777 754 767 777 784 783 784 783 782 783 783 783 783 781 779 777 775 773 771 771 773 776 777 779 779 783 784 787 791 794 797 799 802 805 807 809 812 814 816 819 819 819
759 770 771 769 768 781 767 769 753 763 763 782 784 786 785 783 783 784 785 784 784 782 779 776 774 772 771 771 772 774 774 777 777 779 782 787 790 793 794 797 800 803 806 809 811 814 816 817 818
766 775 787 788 781 780 747 756 753 765 764 775 785 785 784 783 783 784 785 783 783 782 781 779 777 774 772 771 771 772 773 775 776 776 779 781 784 787 789 792 795 798 801 805 808 811 813 816 817
758 765 775 786 774 761 742 763 755 769 778 784 785 786 786 787 787 786 788 788 786 785 785 783 780 778 775 772 770 769 769 770 771 773 774 775 777 780 784 787 791 793 796 800 804 807 810 812 814
759 767 748 761 754 771 761 775 778 777 782 784 785 786 789 790 790 791 789 791 790 789 787 786 784 782 779 776 772 769 768 769 768 768 769 771 772 774 780 783 786 790 792 795 799 802 806 808 811
762 755 770 762 782 780 762 748 755 774 778 783 786 787 790 791 791 792 792 793 791 791 788 787 786 785 783 780 776 772 769 768 768 768 767 769 770 771 774 778 782 784 788 790 794 798 802 805 807
779 769 765 764 770 776 771 758 751 756 769 781 785 789 790 791 792 793 794 794 793 792 790 789 788 786 783 782 779 775 772 770 767 765 764 765 767 768 769 771 775 779 781 784 787 790 794 798 802
804 801 791 797 783 770 768 762 761 765 778 786 788 791 790 793 792 794 795 796 795 793 791 790 789 786 784 782 779 777 775 772 771 769 765 761 762 763 765 766 767 771 774 778 781 785 786 789 794